Location: Nuoro
(40.3167°N, 9.3500°E)
Time: 20:14:12
(UTC+00:00)

Daily predictions for brighter satellites

Satellite Brightness Start Highest point End
(mag) Time Altitude Azimuth Time Altitude Azimuth Time Altitude Azimuth
BREEZE-M R/B 1.9 18:52:25 10° SW 18:55:49 81° SE 18:58:16 10° ENE
Cosmos 1814 Rocket 4.1 18:57:02 10° NNW 19:02:16 83° WSW 19:07:25 10° SSE
Lacrosse 5 rocket 4.2 19:03:56 10° W 19:05:49 13° WSW 19:07:43 10° SW
CZ-2C R/B 4.4 19:02:02 10° N 19:06:58 38° WNW 19:11:59 10° SW
Nadezhda 2 Rocket 4.5 19:01:06 10° N 19:07:15 80° E 19:13:20 10° S
Cosmos 1553 Rocket 4.0 19:02:29 10° S 19:08:28 60° E 19:14:33 10° NNE
USA 186 1.5 19:07:01 10° S 19:09:36 65° WSW 19:12:04 10° NNW
MOS 1-B Rocket 4.3 19:03:43 10° NNE 19:11:09 69° ESE 19:17:24 10° S
SJ-6B 2.7 19:08:26 10° SSE 19:12:15 78° ENE 19:16:13 10° N
Cosmos 968 Rocket 3.5 19:10:23 10° SSW 19:15:38 78° ESE 19:20:53 10° NNE
Sich 1 4.1 19:13:47 10° NNE 19:17:33 29° ENE 19:20:44 13° SE
Cosmos 1606 2.6 19:14:15 10° S 19:17:59 78° E 19:21:47 10° N
Cosmos 1844 Rocket 2.6 19:12:36 10° SSW 19:18:08 74° ESE 19:23:43 10° NNE
FALCON 9 DEB 2.7 19:15:19 10° NW 19:18:21 86° SW 19:20:42 15° SE
Resurs 01 Rocket 2.7 19:15:30 12° SE 19:19:00 29° ENE 19:22:50 10° N
Cosmos 1943 4.4 19:14:01 10° NW 19:19:18 42° WSW 19:24:35 10° S
SPOT 3 Rocket 4.4 19:18:05 12° SE 19:22:13 32° ENE 19:26:46 10° N
Cosmos 1417 Rocket 4.5 19:16:28 10° S 19:22:36 66° E 19:28:43 10° NNE
FALCON 9 DEB 2.9 19:21:14 10° NW 19:24:14 67° SW 19:26:24 17° SE
Cosmos 1486 Rocket 4.0 19:22:23 10° SSW 19:27:42 80° ESE 19:33:03 10° NNE
CZ-4C R/B 4.3 19:25:59 10° NNW 19:31:48 26° NE 19:38:20 10° E
ERS-2 4.3 19:31:12 10° N 19:34:24 30° WNW 19:37:35 10° SW
FALCON 9 DEB 2.8 19:31:36 10° NW 19:34:39 72° SW 19:36:23 23° SE
Cosmos 1151 Rocket 4.1 19:33:03 17° SE 19:35:16 26° E 19:38:55 10° NNE
SL-4 R/B 2.2 19:31:17 10° NW 19:35:42 86° SW 19:38:59 19° SE
SL-08 ROCKET BODY 4.4 19:32:41 10° N 19:38:36 86° W 19:44:26 10° S
OBJECT-B 2.3 19:38:26 10° SSW 19:41:26 35° W 19:44:28 10° NNW
Cosmos 1844 3.7 19:35:50 10° SSW 19:41:35 88° WNW 19:47:18 10° NNE
ATLAS 5 CENTAUR R/B 3.0 19:37:19 10° NNW 19:42:41 42° NE 19:47:08 18° ESE
Cosmos 2084 3.9 19:45:18 10° S 19:49:03 35° ESE 19:52:53 10° NE
GPS 2-04 Rocket1 3.9 19:46:14 10° SSW 19:49:30 23° SSE 19:49:44 23° SSE
Intercosmos 24 3.6 19:48:36 10° S 19:52:38 90° NE 19:56:12 10° N
Cosmos 1833 Rocket 4.3 19:50:42 10° N 19:54:54 21° NE 19:57:45 15° E
Cosmos 1242 Rocket 2.4 19:52:32 16° S 19:55:15 71° E 19:58:50 10° NNE
Spot 2 Rocket 4.4 19:56:47 23° ESE 19:58:56 31° ENE 20:03:21 10° N
Meteor 1-26 Rocket 4.3 19:54:22 12° S 19:59:35 59° E 20:05:04 10° NNE
Cosmos 1805 Rocket 3.8 19:57:10 10° NNW 20:01:29 67° W 20:04:54 16° S
SPOT 5 4.4 20:01:56 19° E 20:03:43 23° ENE 20:07:44 10° NNE
ARIANE 5 R/B 3.6 20:06:12 27° E 20:07:21 31° ENE 20:11:10 10° N
Terra 3.6 20:06:40 15° E 20:07:51 17° ENE 20:10:50 10° NNE
FALCON 9 DEB 4.3 20:06:08 10° WNW 20:08:47 26° SW 20:09:21 25° SSW
Cosmos 1633 Rocket 3.3 20:04:57 10° N 20:09:15 51° E 20:10:43 35° SE
DELTA 2 R/B (1) 3.6 20:04:13 10° W 20:09:44 65° SSW 20:12:22 31° SE
CZ-2C R/B 3.6 20:05:37 10° NNE 20:10:06 70° ESE 20:13:08 21° S
ERS-1 Rocket 4.1 20:10:41 23° E 20:12:12 27° ENE 20:16:24 10° N
IGS 5A 3.4 20:11:11 29° S 20:13:16 82° W 20:17:26 10° NNW
USA 290 2.2 20:11:00 10° NNW 20:14:15 78° WSW 20:14:51 54° S
Cosmos 883 Rocket 4.5 20:10:03 10° S 20:16:20 88° ESE 20:22:44 10° N
Cosmos 1328 Rocket 3.6 20:14:51 34° SSE 20:16:35 61° E 20:20:58 10° NNE
Cosmos 1437 3.7 20:17:59 30° NE 20:17:59 30° NE 20:19:43 10° NNE
Cosmos 1933 4.1 20:13:44 10° SSW 20:17:40 51° W 20:21:37 10° N
Cosmos 1503 Rocket 4.4 20:13:40 10° SSW 20:18:46 63° WNW 20:23:56 10° NNE
Cosmos 1745 Rocket 4.4 20:12:56 10° NNW 20:19:00 61° W 20:24:25 13° S
Cosmos 1470 Rocket 4.2 20:15:15 10° N 20:19:26 37° ENE 20:20:10 35° E
Cosmos 1709 Rocket 3.9 20:15:40 10° N 20:21:48 81° E 20:25:15 28° SSE
Cosmos 1777 Rocket 4.0 20:20:39 31° SSE 20:22:56 55° ESE 20:28:00 10° NNE
X-37B 1.4 20:20:37 10° WNW 20:23:43 45° NNE 20:24:16 40° NE
CARTOSAT-1 4.0 20:23:35 38° E 20:24:20 42° ENE 20:28:25 10° N
Cosmos 1500 3.4 20:26:31 10° N 20:30:08 50° ENE 20:30:08 50° ENE
Cosmos 2082 Rocket 3.8 20:26:12 10° N 20:30:19 20° NE 20:32:17 17° E
COSMOS 2406 4.0 20:25:37 10° N 20:30:53 38° ENE 20:32:38 30° E
Meteor 2-6 Rocket 4.4 20:31:36 41° SE 20:32:51 48° E 20:38:05 10° NNE
Cosmos 1933 Rocket 4.4 20:29:55 10° N 20:33:52 34° ENE 20:33:54 34° ENE
Cosmos 1666 Rocket 3.8 20:31:25 10° NNW 20:35:46 63° W 20:37:20 37° SSW
Cosmos 2315 Rocket 4.1 20:31:36 15° SSW 20:37:02 78° W 20:43:27 10° N
Landsat 7 4.4 20:35:42 28° SSW 20:38:00 53° W 20:42:40 10° NNW
Cosmos 1782 3.4 20:36:20 27° SSW 20:38:16 55° W 20:42:13 10° N
Cosmos 1271 Rocket 4.0 20:46:42 29° NE 20:46:42 29° NE 20:49:13 10° NNE
SPOT 1/Viking Rocket 3.7 20:45:30 38° S 20:47:28 68° WSW 20:52:40 10° NNW
SJ 16-02 1.8 20:52:10 46° ENE 20:52:10 46° ENE 20:55:45 10° NNE
Cosmos 2278 Rocket 2.0 20:50:05 39° S 20:52:15 75° ESE 20:57:55 10° NNE
Resurs 01 Rocket 3.5 20:53:04 16° SW 20:55:27 25° W 20:59:08 10° NW
Meteor 1-11 Rocket 4.4 20:51:19 10° N 20:56:57 40° ENE 20:57:46 38° E
Cosmos 2228 Rocket 4.0 21:01:58 35° ENE 21:01:58 35° ENE 21:05:08 10° NNE
H-2A R/B 4.0 21:01:25 10° NNE 21:04:39 47° NE 21:04:39 47° NE
Cosmos 1943 Rocket 4.3 21:11:10 13° ENE 21:11:10 13° ENE 21:12:12 10° ENE
ATLAS 2AS CENTAUR R/B 4.1 21:07:08 10° NNW 21:13:33 31° NE 21:16:52 21° E
SL-4 R/B 4.5 21:12:17 10° W 21:14:33 15° WSW 21:14:33 15° WSW
Cosmos 1812 3.7 21:16:50 41° W 21:16:50 41° W 21:20:31 10° N
Meteor 1-10 Rocket 4.1 21:17:12 63° SSW 21:18:09 87° W 21:23:48 10° N
Iridium 4 Rocket 3.8 21:18:17 55° SSW 21:19:32 76° W 21:25:27 10° N
Cosmos 1536 4.3 21:16:55 10° N 21:19:22 29° NE 21:19:22 29° NE
CZ-4C R/B 3.0 21:13:47 10° NW 21:21:18 88° ENE 21:23:48 51° SE
USA 308 4.3 21:21:47 10° NW 21:25:39 32° NNE 21:25:49 32° NE
ATLAS 5 CENTAUR R/B 3.3 21:21:55 10° NW 21:27:24 38° WSW 21:28:41 35° SW
Cosmos 1538 Rocket 3.9 21:23:21 10° NNW 21:28:43 80° WSW 21:28:51 79° SW
SL-24 DEB 4.4 21:30:18 65° NNE 21:30:18 65° NNE 21:34:16 10° N
Meteor 1-5 Rocket 4.4 21:24:52 10° NNW 21:30:07 55° W 21:30:46 51° WSW
Milstar 3 3.9 21:21:59 10° WSW 21:32:20 38° S 21:32:20 38° S
Cosmos 158 Rocket 4.1 21:28:15 10° NNW 21:32:38 62° NNE 21:32:38 62° NNE
Cosmos 1666 4.2 21:32:28 10° NNW 21:34:56 34° NW 21:34:56 34° NW
Cosmos 1833 Rocket 2.8 21:33:41 10° NNW 21:39:16 62° WSW 21:39:27 61° WSW
SPOT 5 3.7 21:41:10 42° WSW 21:41:26 43° W 21:46:23 10° NNW
Cosmos 1869 Rocket 4.4 21:38:07 10° N 21:41:17 48° N 21:41:17 48° N
ARIANE 5 R/B 4.4 21:43:45 22° W 21:43:49 22° W 21:47:14 10° NW
Terra 2.4 21:45:33 52° W 21:45:33 52° W 21:49:49 10° NNW
Cosmos 2327 Rocket 4.4 21:39:40 10° N 21:46:07 88° E 21:46:40 76° SSE
Cosmos 1680 Rocket 4.1 21:41:02 10° N 21:45:47 47° NE 21:45:47 47° NE
Cosmos 2297 4.4 21:50:18 42° ENE 21:50:18 42° ENE 21:54:22 10° NNE
ERS-1 Rocket 4.1 21:50:41 33° W 21:50:51 34° W 21:55:24 10° NNW
Cosmos 2154 Rocket 4.0 21:53:26 10° NNW 21:59:44 70° W 22:00:11 68° WSW
USA 305 4.5 22:03:04 10° NW 22:05:35 34° NNW 22:05:35 34° NNW
Meteor 1-27 Rocket 4.4 22:12:02 47° W 22:12:38 49° WNW 22:18:21 10° N
Cosmos 2082 Rocket 2.6 22:09:19 10° NNW 22:14:08 57° WNW 22:14:08 57° WNW
COSMOS 2406 4.5 22:10:09 10° NW 22:14:42 30° W 22:14:42 30° W
Cosmos 962 Rocket 4.4 22:11:10 10° N 22:17:03 82° NNW 22:17:03 82° NNW
Cosmos 44 4.3 22:13:39 10° NNW 22:18:21 45° NE 22:18:21 45° NE
Cosmos 1898 Rocket 4.0 22:20:55 59° NNW 22:20:55 59° NNW 22:25:23 10° NNE
SJ 16-02 3.9 22:29:06 14° WNW 22:30:21 15° WNW 22:32:55 10° NNW
Cosmos 2181 Rocket 4.0 22:34:44 77° N 22:34:44 77° N 22:40:23 10° N
Cosmos 1238 Rocket 4.0 22:34:33 10° N 22:39:54 65° NNW 22:39:54 65° NNW
Cosmos 2369 Rocket 3.1 22:48:04 41° NE 22:48:04 41° NE 22:51:50 10° NNE
Cosmos 2366 rocket 4.0 22:44:02 10° N 22:49:36 74° NNW 22:49:36 74° NNW
NOSS 3-4 (A) 4.3 22:44:28 10° NW 22:50:58 49° WSW 22:50:58 49° WSW
NOSS 3-4 (C) 4.3 22:44:34 10° NW 22:51:05 49° WSW 22:51:05 49° WSW
Cosmos 1943 Rocket 2.7 22:52:38 57° NNW 22:52:38 57° NNW 22:57:26 10° NNE
Cosmos 2341 Rocket 4.4 22:45:50 10° NNW 22:51:45 53° W 22:51:45 53° W
SeaSat 1 4.1 22:52:43 10° NE 22:55:08 27° NE 22:55:08 27° NE
USA 215 4.0 22:57:12 31° E 22:59:56 47° NNE 23:06:09 10° NW
ATLAS 2AS CENTAUR R/B 2.9 22:57:55 10° NW 23:04:17 61° W 23:04:17 61° W
Meteor 2-4 Rocket 4.1 23:09:23 61° N 23:09:23 61° N 23:14:01 10° N
Cosmos 2218 Rocket 4.3 23:03:31 10° NNW 23:09:04 57° WNW 23:09:04 57° WNW
Nadezhda 3 Rocket 4.1 23:28:06 72° NNE 23:28:06 72° NNE 23:33:40 10° N
ATLAS CENTAUR R/B 4.2 23:34:54 12° NE 23:34:54 12° NE 23:35:12 10° NE
Cosmos 1607 4.1 23:36:39 75° NNE 23:36:39 75° NNE 23:42:35 10° NNE
Thor Agena Rocket 4.3 23:32:38 10° N 23:36:39 49° NNW 23:36:39 49° NNW
Resurs 1-4 Rocket 4.0 23:50:04 10° NE 23:53:19 19° E 23:53:19 19° E
